�������l�o���
Date,Time,MP-1(��Sv/h),MP-2(��Sv/h),MP-3(��Sv/h),MP-4(��Sv/h),MP-5(��Sv/h),MP-6(��Sv/h),MP-7(��Sv/h),MP-8(��Sv/h),����,����(m/s),���J
2019/05/02,00:00,0.733,1.046,0.737,1.341,0.971,0.434,0.752,0.714,�쐼,2.3,�L
2019/05/02,00:10,0.733,1.045,0.736,1.341,0.971,0.434,0.754,0.715,���쐼,2.6,�L
2019/05/02,00:20,0.731,1.043,0.737,1.337,0.971,0.433,0.752,0.716,���쐼,1.7,�L
2019/05/02,00:30,0.732,1.043,0.735,1.337,0.971,0.436,0.752,0.713,��,2.3,�L
2019/05/02,00:40,0.732,1.043,0.734,1.337,0.971,0.435,0.752,0.715,�k�k��,2.0,�L
2019/05/02,00:50,0.733,1.044,0.736,1.338,0.971,0.435,0.752,0.716,�k�k��,3.6,�L
2019/05/02,01:00,0.731,1.047,0.737,1.340,0.973,0.433,0.752,0.714,�k��,2.9,�L
2019/05/02,01:10,0.733,1.045,0.735,1.338,0.971,0.437,0.751,0.714,�k��,2.3,�L
2019/05/02,01:20,0.732,1.047,0.738,1.339,0.974,0.435,0.753,0.715,���k��,2.9,�L
2019/05/02,01:30,0.734,1.046,0.737,1.337,0.972,0.436,0.753,0.715,�k��,2.0,�L
2019/05/02,01:40,0.731,1.046,0.735,1.335,0.972,0.438,0.751,0.716,���k��,1.7,�L
2019/05/02,01:50,0.731,1.044,0.736,1.336,0.974,0.434,0.751,0.714,�k��,2.0,�L
2019/05/02,02:00,0.732,1.043,0.735,1.334,0.974,0.434,0.752,0.714,���k��,3.1,�L
2019/05/02,02:10,0.731,1.046,0.734,1.336,0.972,0.433,0.751,0.714,���k��,3.7,�L
2019/05/02,02:20,0.729,1.042,0.733,1.335,0.972,0.433,0.751,0.715,���k��,3.3,�L
2019/05/02,02:30,0.732,1.044,0.735,1.336,0.973,0.432,0.751,0.716,�k��,3.0,�L
2019/05/02,02:40,0.730,1.043,0.734,1.337,0.973,0.433,0.752,0.716,�k��,3.0,�L
2019/05/02,02:50,0.728,1.043,0.733,1.335,0.972,0.433,0.751,0.716,���k��,2.0,�L
2019/05/02,03:00,0.731,1.044,0.731,1.333,0.972,0.432,0.752,0.715,�k��,1.2,�L
2019/05/02,03:10,0.728,1.043,0.732,1.336,0.969,0.434,0.753,0.716,�k��,2.9,�L
2019/05/02,03:20,0.729,1.045,0.734,1.336,0.972,0.430,0.752,0.716,���k��,4.6,��
2019/05/02,03:30,0.728,1.042,0.731,1.334,0.970,0.431,0.753,0.716,�k��,6.1,��
2019/05/02,03:40,0.727,1.042,0.730,1.334,0.970,0.431,0.750,0.716,�k�k��,6.4,��
2019/05/02,03:50,0.728,1.045,0.733,1.333,0.970,0.432,0.753,0.716,�k��,5.3,��
2019/05/02,04:00,0.729,1.041,0.731,1.333,0.970,0.431,0.751,0.714,�k�k��,4.4,��
2019/05/02,04:10,0.727,1.043,0.730,1.333,0.971,0.431,0.753,0.715,�k��,5.7,��
2019/05/02,04:20,0.727,1.043,0.731,1.334,0.971,0.430,0.753,0.719,�k�k��,4.1,��
2019/05/02,04:30,0.728,1.044,0.731,1.335,0.969,0.429,0.752,0.716,�k�k��,4.6,��
2019/05/02,04:40,0.728,1.040,0.733,1.334,0.969,0.430,0.751,0.715,�k�k��,3.2,��
2019/05/02,04:50,0.726,1.042,0.731,1.335,0.970,0.430,0.752,0.717,�k��,2.6,��
2019/05/02,05:00,0.727,1.046,0.731,1.334,0.970,0.428,0.752,0.716,���k��,2.9,��
2019/05/02,05:10,0.726,1.042,0.730,1.335,0.968,0.429,0.753,0.715,��,3.7,��
2019/05/02,05:20,0.729,1.043,0.732,1.335,0.971,0.430,0.753,0.716,���k��,3.3,��
2019/05/02,05:30,0.726,1.043,0.733,1.334,0.968,0.429,0.753,0.716,�k��,2.9,��
2019/05/02,05:40,0.727,1.044,0.732,1.334,0.972,0.431,0.752,0.716,�k��,5.1,��
2019/05/02,05:50,0.728,1.044,0.732,1.335,0.970,0.430,0.753,0.716,�k��,5.0,��
2019/05/02,06:00,0.727,1.045,0.733,1.334,0.971,0.429,0.754,0.716,�k��,3.4,��
2019/05/02,06:10,0.727,1.045,0.731,1.337,0.971,0.429,0.754,0.717,���k��,3.6,��
2019/05/02,06:20,0.728,1.042,0.732,1.337,0.969,0.429,0.754,0.716,��,5.9,��
2019/05/02,06:30,0.729,1.046,0.733,1.338,0.974,0.431,0.754,0.716,��,7.5,��
2019/05/02,06:40,0.730,1.047,0.734,1.341,0.971,0.428,0.755,0.717,���쐼,8.3,��
2019/05/02,06:50,0.730,1.045,0.735,1.338,0.974,0.429,0.754,0.716,���쐼,8.9,��
2019/05/02,07:00,0.731,1.046,0.735,1.338,0.974,0.428,0.755,0.715,���쐼,6.8,��
2019/05/02,07:10,0.730,1.047,0.735,1.337,0.973,0.429,0.753,0.718,��,4.8,��
2019/05/02,07:20,0.730,1.046,0.734,1.340,0.975,0.428,0.754,0.719,��,4.1,��
2019/05/02,07:30,0.732,1.048,0.733,1.339,0.973,0.430,0.754,0.717,��,3.1,��
2019/05/02,07:40,0.733,1.048,0.734,1.340,0.977,0.430,0.756,0.716,��,2.3,��
2019/05/02,07:50,0.732,1.050,0.736,1.340,0.976,0.430,0.756,0.718,���k��,3.6,��
2019/05/02,08:00,0.732,1.050,0.738,1.342,0.977,0.429,0.755,0.717,��,2.9,��
2019/05/02,08:10,0.733,1.049,0.737,1.343,0.974,0.430,0.756,0.714,��,5.1,��
2019/05/02,08:20,0.731,1.051,0.736,1.343,0.974,0.430,0.757,0.717,���k��,8.3,��
2019/05/02,08:30,0.730,1.053,0.736,1.343,0.977,0.431,0.757,0.716,��,10.0,��
2019/05/02,08:40,0.732,1.051,0.738,1.345,0.976,0.433,0.757,0.716,��,10.9,��
2019/05/02,08:50,0.732,1.053,0.738,1.346,0.976,0.433,0.756,0.716,���k��,11.1,��
2019/05/02,09:00,0.732,1.053,0.736,1.349,0.980,0.431,0.756,0.716,���k��,9.4,��
2019/05/02,09:10,0.733,1.054,0.736,1.351,0.978,0.433,0.758,0.716,���k��,7.4,��
2019/05/02,09:20,0.733,1.057,0.737,1.348,0.980,0.432,0.757,0.716,���k��,6.7,��
2019/05/02,09:30,0.734,1.058,0.738,1.350,0.982,0.432,0.755,0.716,��,7.7,��
2019/05/02,09:40,0.736,1.058,0.738,1.350,0.982,0.432,0.759,0.716,���k��,10.2,��
2019/05/02,09:50,0.734,1.060,0.740,1.353,0.982,0.434,0.758,0.716,���k��,7.6,��
2019/05/02,10:00,0.736,1.060,0.739,1.352,0.982,0.433,0.759,0.717,���k��,11.3,��
2019/05/02,10:10,0.738,1.056,0.740,1.353,0.982,0.432,0.758,0.717,���k��,9.9,��
2019/05/02,10:20,0.735,1.065,0.740,1.355,0.986,0.433,0.760,0.720,���k��,8.4,��
2019/05/02,10:30,0.736,1.064,0.739,1.351,0.986,0.434,0.758,0.716,��,9.3,��
2019/05/02,10:40,0.738,1.065,0.741,1.352,0.988,0.432,0.758,0.716,��,10.9,��
2019/05/02,10:50,0.738,1.065,0.741,1.353,0.986,0.434,0.760,0.717,��,12.2,��
2019/05/02,11:00,0.740,1.066,0.741,1.355,0.988,0.434,0.763,0.719,���k��,11.4,��
2019/05/02,11:10,0.740,1.067,0.741,1.352,0.988,0.433,0.760,0.717,���k��,10.6,��
2019/05/02,11:20,0.739,1.069,0.743,1.352,0.988,0.436,0.760,0.718,���k��,12.8,��
2019/05/02,11:30,0.740,1.068,0.742,1.354,0.990,0.434,0.761,0.720,���k��,12.8,��
2019/05/02,11:40,0.742,1.070,0.744,1.355,0.992,0.436,0.761,0.720,��,9.6,��
2019/05/02,11:50,0.741,1.071,0.743,1.357,0.992,0.435,0.760,0.719,���k��,9.9,��
2019/05/02,12:00,0.741,1.071,0.743,1.357,0.993,0.435,0.761,0.721,���k��,13.8,��
2019/05/02,12:10,0.742,1.072,0.746,1.356,0.995,0.435,0.762,0.719,��,9.4,��
2019/05/02,12:20,0.744,1.072,0.745,1.359,0.992,0.435,0.761,0.721,���k��,7.0,��
2019/05/02,12:30,0.743,1.072,0.747,1.358,0.996,0.434,0.761,0.720,���k��,10.2,��
2019/05/02,12:40,0.744,1.076,0.746,1.357,0.996,0.435,0.763,0.720,��,14.7,��
2019/05/02,12:50,0.744,1.076,0.747,1.359,0.996,0.436,0.763,0.721,��,11.3,��
2019/05/02,13:00,0.744,1.076,0.746,1.360,0.997,0.435,0.762,0.720,��,11.6,��
2019/05/02,13:10,0.743,1.075,0.747,1.363,0.998,0.435,0.762,0.721,��,13.0,��
2019/05/02,13:20,0.745,1.079,0.746,1.364,1.000,0.435,0.761,0.720,��,11.6,��
2019/05/02,13:30,0.745,1.075,0.746,1.364,0.998,0.436,0.763,0.721,��,10.8,��
2019/05/02,13:40,0.746,1.081,0.748,1.362,1.000,0.436,0.762,0.720,��,10.5,��
2019/05/02,13:50,0.746,1.080,0.748,1.361,1.000,0.435,0.765,0.721,���쐼,14.9,��
2019/05/02,14:00,0.746,1.079,0.748,1.364,1.000,0.435,0.762,0.721,���쐼,13.8,��
2019/05/02,14:10,0.746,1.080,0.748,1.364,1.001,0.435,0.762,0.721,��,11.0,��
2019/05/02,14:20,0.745,1.082,0.748,1.367,1.000,0.438,0.763,0.721,��,8.9,��
2019/05/02,14:30,0.746,1.082,0.749,1.367,1.005,0.435,0.762,0.720,���k��,8.0,��
2019/05/02,14:40,0.747,1.083,0.749,1.369,1.003,0.435,0.765,0.722,���k��,10.6,��
2019/05/02,14:50,0.748,1.081,0.750,1.369,1.004,0.438,0.762,0.721,���k��,10.0,��
2019/05/02,15:00,0.746,1.085,0.749,1.369,1.002,0.435,0.764,0.722,��,9.1,��
2019/05/02,15:10,0.746,1.082,0.749,1.368,1.004,0.437,0.762,0.722,���k��,10.0,��
2019/05/02,15:20,0.748,1.083,0.748,1.369,1.004,0.437,0.763,0.721,���k��,9.7,��
2019/05/02,15:30,0.745,1.085,0.749,1.369,1.004,0.435,0.762,0.721,���k��,11.3,��
2019/05/02,15:40,0.747,1.085,0.749,1.372,1.004,0.438,0.764,0.720,��,10.8,��
2019/05/02,15:50,0.747,1.084,0.751,1.370,1.003,0.437,0.762,0.722,��,9.1,��
2019/05/02,16:00,0.745,1.085,0.750,1.371,1.004,0.437,0.763,0.720,��,12.1,��
2019/05/02,16:10,0.746,1.084,0.749,1.371,1.004,0.436,0.763,0.720,���k��,8.6,��
2019/05/02,16:20,0.750,1.082,0.750,1.371,1.005,0.436,0.764,0.721,��,9.4,��
2019/05/02,16:30,0.748,1.085,0.749,1.374,1.003,0.433,0.764,0.720,���k��,8.0,��
2019/05/02,16:40,0.749,1.084,0.751,1.374,1.003,0.437,0.763,0.719,��,8.9,��
2019/05/02,16:50,0.746,1.083,0.750,1.376,1.005,0.437,0.763,0.722,���k��,4.8,��
2019/05/02,17:00,0.748,1.084,0.751,1.372,1.004,0.436,0.762,0.722,��,5.9,��
2019/05/02,17:10,0.746,1.088,0.748,1.373,1.004,0.434,0.764,0.721,���k��,6.7,��
2019/05/02,17:20,0.748,1.087,0.750,1.373,1.003,0.436,0.763,0.721,��,6.0,��
2019/05/02,17:30,0.747,1.088,0.749,1.374,1.004,0.438,0.764,0.723,��,4.9,��
2019/05/02,17:40,0.747,1.091,0.751,1.375,1.002,0.437,0.762,0.723,���k��,6.8,��
2019/05/02,17:50,0.746,1.087,0.750,1.375,1.004,0.436,0.762,0.724,���k��,5.3,��
2019/05/02,18:00,0.746,1.088,0.753,1.374,1.005,0.435,0.763,0.724,��,7.0,��
2019/05/02,18:10,0.746,1.090,0.749,1.375,1.006,0.436,0.762,0.723,���k��,9.3,��
2019/05/02,18:20,0.746,1.086,0.749,1.373,1.004,0.437,0.761,0.723,��,6.4,��
2019/05/02,18:30,0.749,1.089,0.750,1.374,1.003,0.438,0.761,0.722,��,5.9,��
2019/05/02,18:40,0.748,1.088,0.751,1.376,1.006,0.436,0.762,0.724,��,3.4,��
2019/05/02,18:50,0.750,1.088,0.750,1.378,1.005,0.436,0.762,0.724,�k��,5.0,��
2019/05/02,19:00,0.750,1.086,0.753,1.379,1.009,0.437,0.762,0.723,���k��,4.1,��
2019/05/02,19:10,0.748,1.089,0.753,1.380,1.007,0.436,0.762,0.724,���k��,4.5,��
2019/05/02,19:20,0.747,1.088,0.753,1.380,1.011,0.436,0.765,0.724,��,3.2,��
2019/05/02,19:30,0.748,1.085,0.753,1.378,1.006,0.437,0.765,0.724,��,2.3,��
2019/05/02,19:40,0.747,1.089,0.750,1.378,1.007,0.438,0.763,0.721,��,2.6,��
2019/05/02,19:50,0.749,1.088,0.754,1.379,1.007,0.436,0.765,0.723,���k��,2.6,��
2019/05/02,20:00,0.749,1.087,0.751,1.377,1.008,0.437,0.762,0.723,��,3.4,��
2019/05/02,20:10,0.749,1.087,0.752,1.380,1.007,0.436,0.763,0.722,�k��,2.0,��
2019/05/02,20:20,0.747,1.089,0.751,1.380,1.005,0.436,0.763,0.723,���k��,2.0,��
2019/05/02,20:30,0.748,1.086,0.750,1.379,1.007,0.435,0.763,0.722,���k��,2.0,��
2019/05/02,20:40,0.747,1.086,0.752,1.378,1.009,0.435,0.763,0.723,���k��,3.9,��
2019/05/02,20:50,0.748,1.087,0.751,1.378,1.005,0.435,0.765,0.723,���k��,2.3,��
2019/05/02,21:00,0.747,1.088,0.750,1.379,1.005,0.434,0.764,0.723,�k��,0.9,��
2019/05/02,21:10,0.746,1.087,0.752,1.379,1.007,0.436,0.764,0.722,��,1.2,��
2019/05/02,21:20,0.747,1.088,0.753,1.380,1.006,0.437,0.763,0.723,��,1.7,��
2019/05/02,21:30,0.748,1.086,0.752,1.379,1.005,0.435,0.763,0.725,�쓌,0.6,��
2019/05/02,21:40,0.748,1.085,0.751,1.379,1.007,0.437,0.763,0.723,�쐼,1.7,��
2019/05/02,21:50,0.748,1.084,0.749,1.380,1.007,0.436,0.762,0.722,���쐼,2.8,��
2019/05/02,22:00,0.749,1.088,0.750,1.379,1.007,0.438,0.764,0.725,��,4.6,��
2019/05/02,22:10,0.748,1.086,0.752,1.379,1.007,0.436,0.764,0.722,��,5.2,��
2019/05/02,22:20,0.748,1.086,0.753,1.380,1.008,0.435,0.764,0.723,���k��,5.8,��
2019/05/02,22:30,0.747,1.086,0.752,1.382,1.005,0.436,0.763,0.723,��,4.1,��
2019/05/02,22:40,0.746,1.085,0.753,1.382,1.005,0.436,0.764,0.722,���k��,4.5,��
2019/05/02,22:50,0.747,1.084,0.751,1.378,1.007,0.437,0.763,0.723,�k��,2.6,��
2019/05/02,23:00,0.749,1.085,0.750,1.379,1.008,0.435,0.764,0.722,���k��,2.0,��
2019/05/02,23:10,0.750,1.087,0.750,1.382,1.007,0.436,0.763,0.724,�k��,2.2,��
2019/05/02,23:20,0.746,1.086,0.751,1.379,1.004,0.435,0.764,0.724,-,CALM,��
2019/05/02,23:30,0.750,1.087,0.753,1.379,1.004,0.434,0.763,0.723,�k�k��,0.9,��
2019/05/02,23:40,0.746,1.085,0.752,1.379,1.005,0.434,0.763,0.724,�k�k��,1.7,��
2019/05/02,23:50,0.746,1.088,0.752,1.377,1.006,0.436,0.762,0.722,�k�k��,1.9,��
